CW8727 Weather Reports


Display with metric or nautical units.
time (UTC)temp
F
wind
direction
speed
MPH
gust
MPH
rain 1hr
in
rain 24hr
in
rain mn
in
humidity
%
barometer
mb
20180526094719 59 340 0.0 0.0 0.00 0.00 0.00 90 1007.6
20180526092719 59 340 0.0 0.0 0.00 0.00 0.00 89 1007.4
20180526091719 59 340 0.0 0.0 0.00 0.00 0.00 89 1007.4
20180526090722 60 340 0.0 0.0 0.00 0.00 0.00 89 1007.2
20180526082719 60 340 0.0 0.0 0.00 0.00 0.00 88 1007.4
20180526081719 61 340 0.0 0.0 0.00 0.00 0.00 87 1007.4
20180526075719 61 340 0.0 0.0 0.00 0.00 0.00 87 1007.3
20180526074719 61 340 0.0 0.0 0.00 0.00 0.00 87 1007.3
20180526073719 61 340 0.0 0.0 0.00 0.00 0.00 86 1007.3
20180526071719 62 340 0.0 0.0 0.00 0.00 0.00 85 1007.4
20180526065719 62 340 0.0 0.0 0.00 0.00 0.00 83 1007.3
20180526064719 63 340 0.0 0.0 0.00 0.00 0.00 83 1007.4
20180526062719 63 340 0.0 0.0 0.00 0.00 0.00 81 1007.5
20180526061719 64 340 0.0 0.0 0.00 0.00 0.00 81 1007.6
20180526060719 64 340 0.0 0.0 0.00 0.00 0.00 81 1007.6
20180526055719 64 340 0.0 1.0 0.00 0.00 0.00 81 1007.5
20180526052719 63 340 0.0 0.0 0.00 0.00 0.00 81 1007.7
20180526051719 63 340 0.0 0.0 0.00 0.00 0.00 80 1007.7
20180526050719 63 340 0.0 0.0 0.00 0.00 0.00 81 1007.8
20180526045719 62 340 0.0 0.0 0.00 0.00 0.00 80 1007.9
20180526044719 62 340 0.0 0.0 0.00 0.00 0.00 80 1007.9
20180526043719 62 340 0.0 0.0 0.00 0.00 0.00 79 1007.9
20180526040719 63 340 0.0 0.0 0.00 0.00 0.00 77 1007.8
20180526034719 63 340 0.0 0.0 0.00 0.00 0.00 75 1007.9
20180526033719 63 340 0.0 0.0 0.00 0.00 0.00 73 1007.9
20180526032719 64 340 0.0 0.0 0.00 0.00 0.00 72 1007.9
20180526025719 66 340 0.0 0.0 0.00 0.00 0.00 67 1008.0
20180526024719 66 340 0.0 0.0 0.00 0.00 0.00 66 1008.1
20180526023719 67 340 0.0 0.0 0.00 0.00 0.00 65 1008.2
20180526022719 67 340 0.0 0.0 0.00 0.00 0.00 65 1008.2
20180526021719 68 340 0.0 0.0 0.00 0.00 0.00 65 1008.2
20180526020719 68 340 0.0 0.0 0.00 0.00 0.00 63 1008.3
20180526015719 69 340 0.0 0.0 0.00 0.00 0.00 63 1008.3
20180526014719 70 340 0.0 0.0 0.00 0.00 0.00 63 1008.2
20180526013719 71 340 0.0 0.0 0.00 0.00 0.00 64 1008.1
20180526010719 71 340 0.0 0.0 0.00 0.00 0.00 63 1007.6
20180526004719 72 340 0.0 0.0 0.00 0.00 0.00 63 1007.6
20180525232719 76 340 0.0 0.0 0.00 0.00 0.00 58 1007.6
20180525231719 77 340 0.0 0.0 0.00 0.00 0.00 60 1007.4
20180525224719 79 340 0.0 0.0 0.00 0.00 0.00 56 1007.3
20180525222719 80 340 0.0 1.0 0.00 0.00 0.00 52 1007.3
20180525220719 80 9 0.0 6.0 0.00 0.00 0.00 48 1007.3
20180525215719 80 119 0.0 0.0 0.00 0.00 0.00 46 1007.3
20180525214719 81 30 0.0 2.0 0.00 0.00 0.00 48 1007.3
20180525212719 81 59 0.0 1.0 0.00 0.00 0.00 46 1007.5
20180525211719 82 27 0.0 3.0 0.00 0.00 0.00 43 1007.5
20180525205719 83 60 0.0 1.0 0.00 0.00 0.00 45 1007.8
20180525204719 84 126 0.0 3.0 0.00 0.00 0.00 41 1007.9
20180525202719 84 5 2.0 2.0 0.00 0.00 0.00 44 1007.9
20180525201719 85 74 0.0 7.0 0.00 0.00 0.00 43 1008.1
20180525195719 86 47 1.0 5.0 0.00 0.00 0.00 38 1008.3
20180525194719 86 261 0.0 4.0 0.00 0.00 0.00 43 1008.5
20180525192719 86 26 0.0 3.0 0.00 0.00 0.00 42 1008.7
20180525185719 86 265 0.0 6.0 0.00 0.00 0.00 43 1009.0
20180525184722 87 323 0.0 3.0 0.00 0.00 0.00 41 1009.1
20180525183719 86 265 0.0 4.0 0.00 0.00 0.00 46 1009.3
20180525182719 86 316 0.0 5.0 0.00 0.00 0.00 42 1009.5
20180525180719 86 264 1.0 8.0 0.00 0.00 0.00 40 1009.8
20180525175719 85 304 0.0 7.0 0.00 0.00 0.00 39 1009.8
20180525170719 84 324 0.0 8.0 0.00 0.00 0.00 43 1010.6
20180525164719 83 215 0.0 3.0 0.00 0.00 0.00 44 1010.9
20180525163719 82 329 0.0 5.0 0.00 0.00 0.00 43 1011.1
20180525162719 82 246 0.0 9.0 0.00 0.00 0.00 44 1011.2
20180525154719 80 211 0.0 9.0 0.00 0.00 0.00 44 1012.0
20180525145719 77 40 1.0 5.0 0.00 0.00 0.00 52 1012.9
20180525143719 74 63 0.0 3.0 0.00 0.00 0.00 61 1013.1
20180525134722 68 63 0.0 1.0 0.00 0.00 0.00 69 1014.0
20180525130722 63 342 0.0 0.0 0.00 0.00 0.00 79 1014.6
20180525125719 62 342 0.0 0.0 0.00 0.00 0.00 81 1014.7
20180525121719 58 103 0.0 0.0 0.00 0.00 0.00 88 1015.2
20180525114719 55 103 0.0 0.0 0.00 0.00 0.00 91 1015.4
20180525111719 52 103 0.0 0.0 0.00 0.00 0.00 91 1015.6
20180525110719 52 103 0.0 0.0 0.00 0.00 0.00 91 1015.8
20180525105719 52 103 0.0 0.0 0.00 0.00 0.00 91 1015.7
20180525103719 51 103 0.0 0.0 0.00 0.00 0.00 91 1015.6
20180525102719 51 103 0.0 0.0 0.00 0.00 0.00 91 1015.6
20180525101719 50 103 0.0 0.0 0.00 0.00 0.00 91 1015.6
20180525100719 50 103 0.0 0.0 0.00 0.00 0.00 90 1015.7